User: anonymous   Login
Location: Unspecified
(0.0000°N, 0.0000°E)
Time: 03:19:00
(UTC+00:00)
Language:

ONEWEB-0629 - Orbit

View from above orbital plane
View from above orbital plane
View from above satellite
View from above satellite

Ground track
Ground track

The orbit is defined by the following mean orbital elements,

1 55170U          26145.33265329 +.00000000 +00000-0 -21660-4 0 00002
2 55170  87.9151  10.4160 0002091  80.3312 279.8056 13.17649980    07
Epoch (UTC): 25 May 2026 07:59:01
Eccentricity: 0.0002091
inclination: 87.9151°
perigee height: 1192 km
apogee height: 1195 km
right ascension of ascending node: 10.4160°
argument of perigee: 80.3312°
revolutions per day: 13.17649980
mean anomaly at epoch: 279.8056°

The dashed part of the orbit path shows where the satellite is in the earth's shadow,  

DLR